Regional Weather Roundup
Issued by NWS

Home | Current Version | Previous Version | Text Only | Print | Product List | Glossary On
Versions: 1 2 3 4 5 6 7 8 9 10 11 12 13 14 15 16 17 18 19 20 21 22 23 24 25 26 27 28 29 30 31 32 33 34 35 36 37 38 39 40 41 42 43 44 45 46 47 48 49 50
000
ASUS44 KBMX 271010
RWRAL

ALABAMA REGIONAL WEATHER ROUNDUP
NATIONAL WEATHER SERVICE BIRMINGHAM AL
500 AM CDT WED MAY 27 2015

NOTE: "FAIR" INDICATES FEW OR NO CLOUDS BELOW 12,000 FEET
WITH NO SIGNIFICANT WEATHER AND/OR OBSTRUCTIONS TO VISIBILITY.

THE REMARK "TC" DENOTES TEMPERATURE IN DEGREES CELSIUS.

ALZ001>011-014-016>018-020-271100-
NORTH ALABAMA

CITY           SKY/WX    TMP DP  RH WIND       PRES   REMARKS
MUSCLE SHOALS  CLOUDY    70  67  90 SE5       30.15S
HUNTSVILLE     CLOUDY    70  67  90 S7        30.17R
DECATUR        CLOUDY    69  68  96 S8        30.17R
HALEYVILLE     CLOUDY    69  69 100 CALM      30.20R
GADSDEN        CLOUDY   N/A N/A N/A S3        30.19R
$$

ALZ012-013-022-023-030>036-040>044-271100-
WEST CENTRAL ALABAMA

CITY           SKY/WX    TMP DP  RH WIND       PRES   REMARKS
TUSCALOOSA     CLOUDY    71  69  93 SE5       30.16R
$$

ALZ015-024>027-033>036-040>044-271100-
CENTRAL ALABAMA

CITY           SKY/WX    TMP DP  RH WIND       PRES   REMARKS
BIRMINGHAM     CLOUDY    69  66  90 SE5       30.20R
MONTGOMERY     CLOUDY    68  65  90 CALM      30.19R
SHELBY CO ARPT CLOUDY    68  68 100 SE3       30.19S FOG
MAXWELL AFB    CLOUDY    68  67  95 NE3       30.19R
GREENVILLE     MOCLDY    68  65  90 CALM      30.17R
$$

ALZ019-021-028-029-037-038-045>048-271100-
EAST CENTRAL ALABAMA

CITY           SKY/WX    TMP DP  RH WIND       PRES   REMARKS
ANNISTON       CLOUDY    68  65  90 CALM      30.22R
ALEXANDER CITY MOCLDY    67  64  90 CALM      30.21R
AUBURN         MOCLDY    64  61  88 CALM      30.21R
$$

ALZ051>064-271100-
SOUTHWEST ALABAMA

CITY           SKY/WX    TMP DP  RH WIND       PRES   REMARKS
MOBILE         CLOUDY    75  74  96 E5        30.14R
BROOKLEY FIELD CLOUDY    76  73  91 NE7       30.14S
EVERGREEN      MOCLDY    68  66  93 CALM      30.17R
$$

ALZ049-050-065>069-271100-
SOUTHEAST ALABAMA

CITY           SKY/WX    TMP DP  RH WIND       PRES   REMARKS
DOTHAN         PTCLDY    67  66  97 CALM      30.19S
OZARK          PTCLDY    66  66  99 N3        30.15S
TROY           PTCLDY    65  64  97 N3        30.19R
EUFAULA        MOCLDY    66  64  94 CALM      30.18R FOG
$$


USA.gov is the U.S. government's official web portal to all federal, state and local government web resources and services.